Regional Weather Roundup
Issued by NWS Albany, NY

Home | Current Version | Previous Version | Text Only | Print | Product List | Glossary On
Versions: 1 2 3 4 5 6 7 8 9 10 11 12 13 14 15 16 17 18 19 20 21 22 23 24 25 26 27 28 29 30 31 32 33 34 35 36 37 38 39 40 41 42 43 44 45 46 47 48 49 50
000
ASUS41 KALY 280010
RWRALY

NEW YORK STATE HOURLY WEATHER ROUNDUP
NATIONAL WEATHER SERVICE ALBANY NY
700 PM EST THU NOV 27 2014

NOTE: "FAIR" INDICATES FEW OR NO CLOUDS BELOW 12,000 FEET WITH NO
SIGNIFICANT WEATHER AND/OR NO OBSTRUCTIONS TO VISIBILITY.

NYZ032-033-038>043-046>054-057>066-NYZ062>081-280100-
EAST


CITY           SKY/WX    TMP DP  RH WIND       PRES   REMARKS
ALBANY         LGT SNOW  29  26  89 CALM      30.04R FOG
GLENS FALLS    LGT SNOW  29  24  82 CALM      30.03R
POUGHKEEPSIE   CLOUDY    32  28  85 N5        30.03R WCI  27
NEWBURGH       CLOUDY    30  30 100 CALM      30.03R FOG
MONTGOMERY     FOG       29  28  96 CALM      30.02R VSB 1/2
WHITE PLAINS   CLOUDY    34  29  82 NW6       30.00R WCI  29
ISLIP          CLOUDY    37  29  72 NW9       30.00R WCI  30
NEW YORK CITY  CLOUDY    37  27  67 NW12      30.03R WCI  29
CENTRAL PARK   CLOUDY    37  26  64 VRB6      30.05S WCI  32
$$

NYZ005>009-017-018-044>046-055-056-280100-
CENTRAL


CITY           SKY/WX    TMP DP  RH WIND       PRES   REMARKS
FULTON         CLOUDY    30  27  88 SW5       30.05S WCI  25
SYRACUSE       FLURRIES  30  28  92 SW8       30.06S WCI  22
ROME           FLURRIES  28  27  96 W3        30.06S
ELMIRA         CLOUDY    27  22  81 CALM      30.05S
BINGHAMTON     CLOUDY    24  22  91 W6        30.00R WCI  17
MONTICELLO     CLOUDY    28  25  86 NW9       29.99R WCI  20
$$

NYZ026>034-041>043-280100-
NORTH


CITY           SKY/WX    TMP DP  RH WIND       PRES   REMARKS
WATERTOWN      LGT SNOW  29  23  78 CALM      30.06S
FORT DRUM      NOT AVBL
MASSENA        CLOUDY    28  19  69 NW3       30.07S
SARANAC LAKE   CLOUDY    23  18  81 CALM      29.94S
PLATTSBURGH    CLOUDY    27  22  81 W5        30.04S WCI  22
$$

NYZ001>004-010>016-019>021-280100-
WEST


CITY           SKY/WX    TMP DP  RH WIND       PRES   REMARKS
NIAGARA FALLS  LGT SNOW  31  29  92 NW9       30.07S WCI  23
BUFFALO        LGT SNOW  32  28  85 NW9       30.06S FOG     WCI  24
DUNKIRK        LGT SNOW  32  28  85 W12       30.09S FOG     WCI  23
JAMESTOWN      CLOUDY    27  25  93 W12       30.05R WCI  16
WELLSVILLE     CLOUDY    28  21  75 NW6       30.01S WCI  22
ROCHESTER      CLOUDY    32  25  75 W3        30.07S
PENN YAN       CLOUDY    29  23  78 W5        30.05S WCI  24
$$

             KEY
       WCI = WIND CHILL INDEX
       VSB = VISIBILITY
       HX  = HEAT INDEX
$$


USA.gov is the U.S. government's official web portal to all federal, state and local government web resources and services.